Weather History for KAWG - March, 2013

Change the Weather History Date:

Thursday, March 28, 2013

  Actual Average Record
Temperature  
Mean Temperature 38 °F -  
Max Temperature 53 °F 54 °F 73 °F (2012)
Min Temperature 24 °F 34 °F 21 °F (2015)
Degree Days  
Heating Degree Days 26    
Moisture  
Dew Point 31 °F    
Average Humidity 73    
Maximum Humidity 100    
Minimum Humidity 47    
Precipitation  
Precipitation 0.00 in - - ()
Sea Level Pressure  
Sea Level Pressure 30.31 in    
Wind  
Wind Speed 5 mph (SE)    
Max Wind Speed 12 mph    
Max Gust Speed -    
Visibility 10 miles    
Events      
Averages and records for this station are not official NWS values.
T = Trace of Precipitation, MM = Missing Value Source: NWS Daily Summary

Daily Weather History Graph

Daily Weather History Graph

Search for Another Location

Airport or City:

Trip Planner

Search our weather history database for the weather conditions in past years. The results will help you decide how hot, cold, wet, or windy it might be!

Date:

Astronomy

Mar. 28, 2013 Rise Set
Actual Time 6:56 AM CDT 7:27 PM CDT
Civil Twilight 6:28 AM CDT 7:55 PM CDT
Nautical Twilight 5:55 AM CDT 8:28 PM CDT
Astronomical Twilight 5:22 AM CDT 9:02 PM CDT
Moon 9:21 PM CDT 7:23 AM CDT
Length of Visible Light 13h 27m
Length of Day
12h 31m
Full, 98% of the Moon is Illuminated
Mar 28
Full
Apr 2
Last Quarter
Apr 10
New
Apr 18
First Quarter
Apr 25
Full

Hourly Weather History & Observations

Time (CDT) Temp. Windchill Dew Point Humidity Pressure Visibility Wind Dir Wind Speed Gust Speed Precip Events Conditions
12:15 AM 32.0 °F 28.7 °F 28.4 °F 87% 30.33 in 10.0 mi South 3.5 mph - N/A   Clear
12:35 AM 32.0 °F 28.7 °F 28.4 °F 87% 30.33 in 10.0 mi SSW 3.5 mph - N/A   Clear
12:55 AM 32.0 °F 28.7 °F 26.6 °F 80% 30.33 in 10.0 mi SSW 3.5 mph - N/A   Clear
1:15 AM 32.0 °F 28.7 °F 26.6 °F 80% 30.33 in 10.0 mi SSW 3.5 mph - N/A   Clear
1:35 AM 32.0 °F - 26.6 °F 80% 30.34 in 10.0 mi Calm Calm - N/A   Clear
1:55 AM 30.2 °F - 26.6 °F 86% 30.33 in 10.0 mi Calm Calm - N/A   Clear
2:15 AM 30.2 °F 26.7 °F 26.6 °F 86% 30.33 in 10.0 mi SSW 3.5 mph - N/A   Clear
2:35 AM 30.2 °F - 26.6 °F 86% 30.34 in 10.0 mi Calm Calm - N/A   Clear
2:55 AM 30.2 °F - 26.6 °F 86% 30.34 in 10.0 mi Calm Calm - N/A   Clear
3:15 AM 30.2 °F - 26.6 °F 86% 30.34 in 10.0 mi Calm Calm - N/A   Clear
3:35 AM 30.2 °F - 26.6 °F 86% 30.33 in 10.0 mi Calm Calm - N/A   Clear
3:55 AM 30.2 °F - 26.6 °F 86% 30.33 in 10.0 mi Calm Calm - N/A   Clear
4:15 AM 28.4 °F - 24.8 °F 86% 30.33 in 10.0 mi Calm Calm - N/A   Clear
4:35 AM 28.4 °F - 26.6 °F 93% 30.33 in 10.0 mi Calm Calm - N/A   Scattered Clouds
4:55 AM 28.4 °F - 26.6 °F 93% 30.33 in 10.0 mi Calm Calm - N/A   Scattered Clouds
5:15 AM 26.6 °F - 24.8 °F 93% 30.33 in 10.0 mi Calm Calm - N/A   Scattered Clouds
5:35 AM 24.8 °F 19.1 °F 24.8 °F 100% 30.33 in 10.0 mi East 4.6 mph - N/A   Clear
5:55 AM 24.8 °F 17.9 °F 23.0 °F 93% 30.33 in 10.0 mi East 5.8 mph - N/A   Clear
6:15 AM 24.8 °F 17.9 °F 24.8 °F 100% 30.34 in 10.0 mi East 5.8 mph - N/A   Clear
6:35 AM 24.8 °F 17.9 °F 23.0 °F 93% 30.34 in 10.0 mi East 5.8 mph - N/A   Clear
6:55 AM 24.8 °F 17.9 °F 24.8 °F 100% 30.34 in 10.0 mi East 5.8 mph - N/A   Clear
7:15 AM 26.6 °F 21.2 °F 24.8 °F 93% 30.35 in 10.0 mi East 4.6 mph - N/A   Clear
7:35 AM 26.6 °F 21.2 °F 24.8 °F 93% 30.35 in 10.0 mi East 4.6 mph - N/A   Clear
7:55 AM 30.2 °F 24.3 °F 28.4 °F 93% 30.35 in 10.0 mi East 5.8 mph - N/A   Clear
8:15 AM 32.0 °F 26.4 °F 28.4 °F 87% 30.35 in 10.0 mi East 5.8 mph - N/A   Clear
8:35 AM 33.8 °F 29.6 °F 30.2 °F 87% 30.36 in 10.0 mi East 4.6 mph - N/A   Clear
8:55 AM 35.6 °F 30.7 °F 30.2 °F 81% 30.36 in 10.0 mi ESE 5.8 mph - N/A   Clear
9:15 AM 37.4 °F 32.8 °F 30.2 °F 75% 30.36 in 10.0 mi ESE 5.8 mph - N/A   Clear
9:35 AM 37.4 °F 33.8 °F 30.2 °F 75% 30.36 in 10.0 mi SE 4.6 mph - N/A   Clear
9:55 AM 39.2 °F 34.2 °F 30.2 °F 70% 30.36 in 10.0 mi SSE 6.9 mph - N/A   Clear
10:15 AM 42.8 °F 38.6 °F 30.2 °F 61% 30.36 in 10.0 mi SE 6.9 mph - N/A   Clear
10:35 AM 42.8 °F 38.6 °F 32.0 °F 66% 30.35 in 10.0 mi ESE 6.9 mph - N/A   Clear
10:55 AM 44.6 °F 38.8 °F 30.2 °F 57% 30.35 in 10.0 mi ESE 11.5 mph - N/A   Clear
11:15 AM 44.6 °F 39.7 °F 32.0 °F 61% 30.35 in 10.0 mi SE 9.2 mph - N/A   Clear
11:35 AM 46.4 °F 41.5 °F 33.8 °F 62% 30.34 in 10.0 mi SE 10.4 mph - N/A   Clear
11:55 AM 46.4 °F 43.5 °F 32.0 °F 57% 30.34 in 10.0 mi SE 5.8 mph - N/A   Clear
12:15 PM 46.4 °F 41.5 °F 32.0 °F 57% 30.34 in 10.0 mi ESE 10.4 mph - N/A   Clear
12:35 PM 48.2 °F - 35.6 °F 62% 30.33 in 10.0 mi ESE 11.5 mph - N/A   Scattered Clouds
12:55 PM 48.2 °F - 33.8 °F 58% 30.33 in 10.0 mi ESE 10.4 mph - N/A   Scattered Clouds
1:15 PM 48.2 °F - 33.8 °F 58% 30.32 in 10.0 mi ESE 9.2 mph - N/A   Clear
1:35 PM 50.0 °F - 33.8 °F 54% 30.32 in 10.0 mi East 9.2 mph - N/A   Clear
1:55 PM 51.8 °F - 33.8 °F 50% 30.31 in 10.0 mi SE 10.4 mph - N/A   Scattered Clouds
2:15 PM 51.8 °F - 33.8 °F 50% 30.30 in 10.0 mi ESE 6.9 mph - N/A   Scattered Clouds
2:35 PM 51.8 °F - 33.8 °F 50% 30.30 in 10.0 mi East 6.9 mph - N/A   Clear
2:55 PM 51.8 °F - 35.6 °F 54% 30.28 in 10.0 mi ESE 8.1 mph - N/A   Clear
3:15 PM 53.6 °F - 33.8 °F 47% 30.27 in 10.0 mi SE 9.2 mph - N/A   Clear
3:35 PM 53.6 °F - 33.8 °F 47% 30.27 in 10.0 mi SE 8.1 mph - N/A   Clear
3:55 PM 53.6 °F - 33.8 °F 47% 30.26 in 10.0 mi SSE 6.9 mph - N/A   Clear
4:15 PM 53.6 °F - 35.6 °F 51% 30.26 in 10.0 mi SE 9.2 mph - N/A   Clear
4:35 PM 53.6 °F - 33.8 °F 47% 30.25 in 10.0 mi ESE 6.9 mph - N/A   Clear
4:55 PM 53.6 °F - 35.6 °F 51% 30.25 in 10.0 mi SSE 8.1 mph - N/A   Clear
5:15 PM 53.6 °F - 35.6 °F 51% 30.25 in 10.0 mi SE 9.2 mph - N/A   Clear
5:35 PM 51.8 °F - 33.8 °F 50% 30.25 in 10.0 mi SE 8.1 mph - N/A   Clear
5:55 PM 51.8 °F - 33.8 °F 50% 30.25 in 10.0 mi ESE 9.2 mph - N/A   Clear
6:15 PM 50.0 °F - 35.6 °F 58% 30.25 in 10.0 mi ESE 8.1 mph - N/A   Clear
6:35 PM 48.2 °F - 35.6 °F 62% 30.26 in 10.0 mi ESE 6.9 mph - N/A   Clear
6:55 PM 48.2 °F - 35.6 °F 62% 30.26 in 10.0 mi East 6.9 mph - N/A   Clear
7:15 PM 46.4 °F 43.5 °F 35.6 °F 66% 30.27 in 10.0 mi ESE 5.8 mph - N/A   Mostly Cloudy
7:35 PM 44.6 °F 40.7 °F 35.6 °F 71% 30.27 in 10.0 mi ESE 6.9 mph - N/A   Mostly Cloudy
7:55 PM 42.8 °F 38.6 °F 35.6 °F 76% 30.27 in 10.0 mi ESE 6.9 mph - N/A   Overcast
8:15 PM 42.8 °F 38.6 °F 35.6 °F 76% 30.27 in 10.0 mi ESE 6.9 mph - N/A   Overcast
8:35 PM 41.0 °F 36.4 °F 35.6 °F 81% 30.27 in 10.0 mi ESE 6.9 mph - N/A   Mostly Cloudy
8:55 PM 39.2 °F 35.0 °F 33.8 °F 81% 30.28 in 10.0 mi SE 5.8 mph - N/A   Clear
9:15 PM 39.2 °F 34.2 °F 33.8 °F 81% 30.28 in 10.0 mi SE 6.9 mph - N/A   Clear
9:35 PM 39.2 °F 34.2 °F 33.8 °F 81% 30.28 in 10.0 mi SE 6.9 mph - N/A   Clear
9:55 PM 39.2 °F 35.9 °F 32.0 °F 75% 30.29 in 10.0 mi SE 4.6 mph - N/A   Clear
10:15 PM 37.4 °F 33.8 °F 32.0 °F 81% 30.29 in 10.0 mi SE 4.6 mph - N/A   Clear
10:35 PM 37.4 °F 34.9 °F 33.8 °F 87% 30.29 in 10.0 mi SE 3.5 mph - N/A   Clear
10:55 PM 37.4 °F 33.8 °F 32.0 °F 81% 30.29 in 10.0 mi SSE 4.6 mph - N/A   Clear
11:15 PM 39.2 °F 35.9 °F 33.8 °F 81% 30.29 in 10.0 mi SSE 4.6 mph - N/A   Clear
11:35 PM 37.4 °F 33.8 °F 32.0 °F 81% 30.29 in 10.0 mi SSE 4.6 mph - N/A   Scattered Clouds
11:55 PM 39.2 °F 35.9 °F 33.8 °F 81% 30.29 in 10.0 mi South 4.6 mph - N/A   Scattered Clouds